Estación de Olivar Alto

Ultimos registro cada 15 minutos 22
Estación Fecha / Hora Temperatura Humedad Lluvia Velocidad Dirección Radiación Presion
22 Olivar Alto 05-05-2026 05:15 9,4 85 0 0 19 0 1016
21 Olivar Alto 05-05-2026 05:00 9,3 86 0 0 19 0 1015,5
20 Olivar Alto 05-05-2026 04:45 9,3 85 0 0 19 0 1015,2
19 Olivar Alto 05-05-2026 04:30 9,3 85 0 0 19 0 1015,1
18 Olivar Alto 05-05-2026 04:15 9,2 84 0 0 19 0 1015,2
17 Olivar Alto 05-05-2026 04:00 9,2 85 0 0 19 0 1015
16 Olivar Alto 05-05-2026 03:45 9,3 85 0 0 19 0 1015
15 Olivar Alto 05-05-2026 03:30 9,4 84 0 0 19 0 1014,9
14 Olivar Alto 05-05-2026 03:15 9,6 84 0 0 19 0 1015,1
13 Olivar Alto 05-05-2026 03:00 9,6 85 0 0 19 0 1014,8
12 Olivar Alto 05-05-2026 02:45 9,5 84 0 0 18 0 1015,2
11 Olivar Alto 05-05-2026 02:30 9,4 84 0 0 18 0 1015,7
10 Olivar Alto 05-05-2026 02:15 9,5 84 0 0 19 0 1015,5
9 Olivar Alto 05-05-2026 02:00 9,6 83 0 0 19 0 1015,9
8 Olivar Alto 05-05-2026 01:45 9,8 82 0 0 19 0 1016,2
7 Olivar Alto 05-05-2026 01:30 9,7 81 0 0 19 0 1016,2
6 Olivar Alto 05-05-2026 01:15 9,6 81 0 0 19 0 1016,2
5 Olivar Alto 05-05-2026 01:00 9,4 82 0 0 36 0 1016,2
4 Olivar Alto 05-05-2026 00:45 9,1 84 0 0 139 0 1016,1
3 Olivar Alto 05-05-2026 00:30 8,8 85 0 0 140 0 1016,2
2 Olivar Alto 05-05-2026 00:15 8,6 85 0 0 140 0 1016,4
1 Olivar Alto 05-05-2026 00:00 8,6 85 0 0 140 0 1016,4